Location: Aulnoy
(48.8410°N, 3.0967°E)
Time: 00:27:04
(UTC+00:00)

Envisat - Pass Details

Date: 06 March 2024
Orbit: 762 x 764 km, 98.3° (Epoch: 12 April)

Event Time Altitude Azimuth Distance (km) Brightness Sun altitude
Rises 03:51:43 0° 10° (N) 3,242 6.7 -24.7°
Reaches altitude 10° 03:54:04 10° 6° (N) 2,311 5.8 -24.3°
Enters shadow 03:58:55 54° 295° (WNW) 926 3.1 -23.5°
